DW4127 Weather Reports


Display with metric or nautical units.
time (UTC)temp
F
wind
direction
speed
MPH
gust
MPH
rain 1hr
in
rain 24hr
in
rain mn
in
humidity
%
barometer
mb
20260906152037 88 90 2.0 6.0 0.00 0.00 0.00 72 1013.6
20260906151037 87 68 3.0 5.0 0.00 0.00 0.00 73 1013.6
20260906150037 87 90 2.0 4.0 0.00 0.00 0.00 71 1013.7
20260906145037 86 90 2.0 4.0 0.00 0.00 0.00 74 1013.5
20260906144057 86 90 1.0 4.0 0.00 0.00 0.00 74 1013.5
20260906143037 85 90 1.0 3.0 0.00 0.00 0.00 75 1013.6
20260906142037 84 90 2.0 5.0 0.00 0.00 0.00 76 1013.6
20260906141037 83 68 1.0 3.0 0.00 0.00 0.00 77 1013.6
20260906140037 83 90 1.0 3.0 0.00 0.00 0.00 78 1013.4
20260906135037 82 90 1.0 6.0 0.00 0.00 0.00 80 1013.4
20260906134057 81 135 1.0 2.0 0.00 0.00 0.00 81 1013.3
20260906133057 81 113 1.0 2.0 0.00 0.00 0.00 83 1013.4
20260906132057 80 113 1.0 2.0 0.00 0.00 0.00 84 1013.3
20260906131037 79 113 1.0 3.0 0.00 0.00 0.00 85 1013.3
20260906130037 79 0.0 0.0 0.00 0.00 0.00 86 1013.2
20260906125037 78 0.0 0.0 0.00 0.00 0.00 86 1013.1
20260906124037 78 0.0 0.0 0.00 0.00 0.00 87 1013.0
20260906123037 78 0.0 0.0 0.00 0.00 0.00 87 1012.9
20260906122037 78 0.0 1.0 0.00 0.00 0.00 86 1012.9
20260906121037 78 0.0 1.0 0.00 0.00 0.00 86 1012.9
20260906120037 78 0.0 2.0 0.00 0.00 0.00 86 1012.8
20260906115037 78 90 1.0 3.0 0.00 0.00 0.00 86 1012.7
20260906114037 78 90 1.0 3.0 0.00 0.00 0.00 86 1012.8
20260906113036 78 0.0 0.0 0.00 0.00 0.00 86 1012.6
20260906112037 78 0.0 0.0 0.00 0.00 0.00 85 1012.6
20260906111037 78 0.0 0.0 0.00 0.00 0.00 85 1012.6
20260906110037 78 0.0 1.0 0.00 0.00 0.00 85 1012.5
20260906105057 79 0.0 0.0 0.00 0.00 0.00 84 1012.4
20260906104036 79 0.0 1.0 0.00 0.00 0.00 84 1012.4
20260906103057 79 0.0 0.0 0.00 0.00 0.00 84 1012.3
20260906102036 79 0.0 1.0 0.00 0.00 0.00 84 1012.3
20260906101056 79 0.0 0.0 0.00 0.00 0.00 83 1012.3
20260906100037 79 0.0 0.0 0.00 0.00 0.00 83 1012.3
20260906095036 80 0.0 2.0 0.00 0.00 0.00 82 1012.1
20260906094037 80 0.0 2.0 0.00 0.00 0.00 82 1012.0
20260906093056 80 0.0 1.0 0.00 0.00 0.00 82 1011.8
20260906092057 80 0.0 1.0 0.00 0.00 0.00 82 1011.7
20260906091037 80 0.0 1.0 0.00 0.00 0.00 82 1011.7
20260906090037 80 0.0 0.0 0.00 0.00 0.00 81 1011.7
20260906085036 80 0.0 0.0 0.00 0.00 0.00 81 1011.6
20260906084037 80 135 1.0 3.0 0.00 0.00 0.00 81 1011.7
20260906083056 81 158 1.0 2.0 0.00 0.00 0.00 80 1011.7
20260906082036 81 158 1.0 2.0 0.00 0.00 0.00 80 1011.7
20260906081036 81 158 2.0 6.0 0.00 0.00 0.00 79 1011.9
20260906080057 81 180 1.0 5.0 0.00 0.00 0.00 79 1011.9
20260906075037 82 180 2.0 3.0 0.00 0.00 0.00 78 1011.8
20260906074036 82 203 2.0 6.0 0.00 0.00 0.00 78 1012.1
20260906073037 82 158 1.0 4.0 0.00 0.00 0.00 78 1011.9
20260906072036 82 203 1.0 6.0 0.00 0.00 0.00 77 1011.8
20260906071036 82 158 1.0 4.0 0.00 0.00 0.00 77 1012.0
20260906070036 82 0.0 2.0 0.00 0.00 0.00 77 1011.8
20260906065037 82 0.0 2.0 0.00 0.00 0.00 77 1011.8
20260906064037 82 113 2.0 6.0 0.00 0.00 0.00 76 1011.8
20260906063036 83 113 3.0 6.0 0.00 0.00 0.00 76 1011.9
20260906062036 83 90 2.0 5.0 0.00 0.00 0.00 75 1012.0
20260906061036 83 90 3.0 6.0 0.00 0.00 0.00 74 1012.2
20260906060036 83 113 2.0 3.0 0.00 0.00 0.00 74 1012.3
20260906055036 83 90 3.0 6.0 0.00 0.00 0.00 73 1012.2
20260906054036 83 90 2.0 4.0 0.00 0.00 0.00 72 1012.1
20260906053036 84 90 1.0 3.0 0.00 0.00 0.00 71 1012.1
20260906052036 84 90 3.0 7.0 0.00 0.00 0.00 71 1012.1
20260906051036 84 90 4.0 9.0 0.00 0.00 0.00 71 1012.1
20260906050036 84 113 2.0 4.0 0.00 0.00 0.00 70 1011.8
20260906045036 84 113 2.0 4.0 0.00 0.00 0.00 70 1011.8
20260906044055 85 113 1.0 4.0 0.00 0.00 0.00 69 1011.9
20260906043115 85 113 3.0 8.0 0.00 0.00 0.00 68 1012.0
20260906042036 85 90 4.0 9.0 0.00 0.00 0.00 68 1012.0
20260906041035 85 90 3.0 6.0 0.00 0.00 0.00 68 1012.0
20260906040036 86 90 4.0 9.0 0.00 0.00 0.00 68 1012.1
20260906035036 86 90 3.0 7.0 0.00 0.00 0.00 68 1012.1
20260906034035 86 90 2.0 6.0 0.00 0.00 0.00 68 1011.9
20260906033036 86 90 3.0 8.0 0.00 0.00 0.00 67 1011.8
20260906032035 86 113 3.0 6.0 0.00 0.00 0.00 67 1011.9
20260906031035 86 113 2.0 4.0 0.00 0.00 0.00 67 1011.9
20260906030035 87 90 3.0 7.0 0.00 0.00 0.00 66 1011.8
20260906025035 87 113 4.0 8.0 0.00 0.00 0.00 66 1011.9
20260906024036 87 113 4.0 8.0 0.00 0.00 0.00 65 1011.8
20260906023035 87 90 3.0 7.0 0.00 0.00 0.00 65 1011.6
20260906022035 87 90 3.0 7.0 0.00 0.00 0.00 64 1011.5
20260906021035 87 90 2.0 6.0 0.00 0.00 0.00 64 1011.3
20260906020035 88 90 3.0 7.0 0.00 0.00 0.00 63 1011.1
20260906015036 88 90 4.0 8.0 0.00 0.00 0.00 62 1011.2
20260906014035 88 90 4.0 7.0 0.00 0.00 0.00 62 1011.0
20260906013155 88 90 5.0 10.0 0.00 0.00 0.00 62 1010.7
20260906012035 88 90 5.0 11.0 0.00 0.00 0.00 61 1010.6
20260906011056 89 90 5.0 10.0 0.00 0.00 0.00 60 1010.5
20260906010035 90 90 5.0 14.0 0.00 0.00 0.00 58 1010.4
20260906005035 92 90 8.0 17.0 0.00 0.00 0.00 54 1010.4
20260906004035 93 90 7.0 12.0 0.00 0.00 0.00 51 1010.2
20260906003035 94 90 6.0 14.0 0.00 0.00 0.00 51 1010.1
20260906002035 95 68 5.0 11.0 0.00 0.00 0.00 50 1010.1
20260906001035 96 68 4.0 10.0 0.00 0.00 0.00 46 1010.0
20260906000035 97 90 4.0 9.0 0.00 0.00 0.00 45 1009.9
20260905235035 97 68 4.0 8.0 0.00 0.00 0.00 45 1009.8
20260905234037 98 68 2.0 7.0 0.00 0.00 0.00 45 1009.7
20260905233037 98 135 2.0 6.0 0.00 0.00 0.00 45 1009.7
20260905232037 98 135 3.0 9.0 0.00 0.00 0.00 44 1009.7
20260905231037 99 135 2.0 5.0 0.00 0.00 0.00 43 1009.8
20260905230037 99 113 1.0 5.0 0.00 0.00 0.00 43 1009.9
20260905225037 99 135 3.0 9.0 0.00 0.00 0.00 42 1009.7
20260905224037 100 113 4.0 10.0 0.00 0.00 0.00 41 1009.8
20260905223037 101 135 2.0 6.0 0.00 0.00 0.00 40 1009.8
20260905222037 101 113 3.0 9.0 0.00 0.00 0.00 39 1009.6
20260905221037 102 158 3.0 9.0 0.00 0.00 0.00 40 1009.8
20260905220037 103 113 1.0 4.0 0.00 0.00 0.00 37 1010.0
20260905215037 101 113 4.0 8.0 0.00 0.00 0.00 39 1010.0
20260905214037 100 135 5.0 11.0 0.00 0.00 0.00 39 1010.0
20260905213037 100 180 3.0 7.0 0.00 0.00 0.00 41 1010.1
20260905212037 100 180 2.0 7.0 0.00 0.00 0.00 40 1010.2
20260905211037 100 135 3.0 7.0 0.00 0.00 0.00 42 1010.4
20260905210057 102 315 1.0 4.0 0.00 0.00 0.00 41 1010.5
20260905205037 99 315 1.0 3.0 0.00 0.00 0.00 45 1010.6
20260905204037 103 135 2.0 5.0 0.00 0.00 0.00 40 1010.8
20260905203037 101 338 2.0 8.0 0.00 0.00 0.00 40 1010.9
20260905202037 101 135 2.0 6.0 0.00 0.00 0.00 43 1011.2
20260905201037 101 180 3.0 7.0 0.00 0.00 0.00 42 1011.3
20260905200037 101 113 1.0 3.0 0.00 0.00 0.00 45 1011.4
20260905195037 101 45 1.0 3.0 0.00 0.00 0.00 44 1011.5
20260905194037 101 135 1.0 2.0 0.00 0.00 0.00 45 1011.6
20260905193037 95 180 3.0 6.0 0.00 0.00 0.00 49 1011.7
20260905192035 97 135 2.0 4.0 0.00 0.00 0.00 48 1012.0
20260905191037 98 90 1.0 5.0 0.00 0.00 0.00 46 1012.2
20260905190037 94 135 1.0 3.0 0.00 0.00 0.00 49 1012.3
20260905185037 94 23 1.0 4.0 0.00 0.00 0.00 51 1012.6
20260905184037 94 23 1.0 7.0 0.00 0.00 0.00 51 1012.6
20260905183037 95 68 1.0 3.0 0.00 0.00 0.00 50 1012.9
20260905182037 96 158 1.0 3.0 0.00 0.00 0.00 48 1013.0
20260905181117 97 158 2.0 7.0 0.00 0.00 0.00 48 1013.2
20260905180037 95 158 3.0 9.0 0.00 0.00 0.00 50 1013.3
20260905175037 96 135 3.0 7.0 0.00 0.00 0.00 48 1013.4
20260905174037 97 68 1.0 3.0 0.00 0.00 0.00 49 1013.6
20260905173037 94 113 1.0 2.0 0.00 0.00 0.00 53 1013.6
20260905172057 94 90 1.0 3.0 0.00 0.00 0.00 53 1013.8
20260905171037 94 180 3.0 7.0 0.00 0.00 0.00 57 1013.9
20260905170037 93 180 2.0 4.0 0.00 0.00 0.00 55 1014.0
20260905165037 93 225 3.0 7.0 0.00 0.00 0.00 56 1014.0
20260905164037 93 180 2.0 4.0 0.00 0.00 0.00 57 1014.1
20260905163117 93 158 3.0 5.0 0.00 0.00 0.00 56 1014.1
20260905162057 91 225 2.0 4.0 0.00 0.00 0.00 58 1014.0
20260905161037 90 248 2.0 5.0 0.00 0.00 0.00 60 1014.1
20260905160037 91 225 1.0 4.0 0.00 0.00 0.00 61 1014.2
20260905155037 90 225 1.0 3.0 0.00 0.00 0.00 61 1014.1
20260905154037 89 293 2.0 6.0 0.00 0.00 0.00 62 1014.0
20260905153057 89 225 3.0 6.0 0.00 0.00 0.00 62 1014.0